DECAYED

STARLINK-1617, 46350 (Decayed)

Orbit data source: Space-Track

STARLINK-1617, 46350 was a payload satellite owned by SpaceX/Seattle (US) in LEO that was launched on Thu, 03 Sep 2020 UTC via an FALCON 9 launch vehicle from the Air Force Eastern Test Range (AFETR). Payloads include a variety of satellites, spacecraft, and rockets equipped with specific instruments for various scientific and technological missions. These include communications satellites like Starlink; space stations such as the ISS; scientific satellites like the Hubble; Earth observation satellites from companies like Planet Labs, Umbra, and HawkEye 360; GPS; miniature CubeSats for education and research; and military/defense satellites.

Not visible in the next 10 days
STARLINK-1617 details
Identifier
46350, 2020-062AB
Orbit
Decayed
Last TLE update7 months ago
Origin
Flag of USSpaceX/Seattle (US)
ManufacturerSpaceX/Seattle
MissionDecayed Commercial Communications
Bus & MotorSTARLINK, Unknown motor
Mass260 kg wet, ~248 kg dry
Launch date (UTC)
2020-09-03 (4 years ago)
Launch vehicle
FALCON 9
Launch site
Air Force Eastern Test Range (AFETR)
Object type
Payload
Rocket body
Debris
Shape & HBRBox + 1 Pan, 8.86 m
Radar Cross Section13.562 m², Large (>1 m²)

Expand to show TLE details & history

TLE from 7 months ago
0 STARLINK-1617
1 46350U 20062AB  24159.67309141  .27472704  12265-4  39212-2 0  9992
2 46350  53.0306 321.1677 0014437 288.1110 177.6355 16.33671739208701
Epoch: 2024-06-07T16:09Z
Definitive object data (Epoch: 2024-06-07T16:09:15.097Z)
Latitude50.415°
Longitude-62.53659°
Altitude198.01 km
Speed7.788 km/s
True Right ascension05h 05m 17s
True Declination50° 13' 54"
Sunlit
Object was in daylight at TLE epoch
Visualization observer readout
Observer readout values are unavailable because the object's trajectory could not be propagated. This is usually caused when the trajectory data is faulty or the object's orbit has decayed.
Visualization observer readout
Observer readout values are unavailable because the object's trajectory could not be propagated. This is usually caused when the trajectory data is faulty or the object's orbit has decayed.
Orbital elements
Apogee altitude192.452 km
Perigee altitude173.508 km
Semi-major axis6,561.117 km
Eccentricity0.0014437
Inclination53.0306°
RAAN321.1677°
Arg. of periapsis288.111°
True anomaly177.64231°
Mean anomaly177.6355°
Eccentric anomaly177.63891°
Mean motion4.08391 °/min
BSTAR0.0039212
Orbital period88.15 mins
Loading maneuver chart data...
Loading historical data...
Loading historical data...
Loading historical data...
Loading historical data...
Loading historical data...
Loading historical data...
Loading historical data...

STARLINK-1617 Visibility forecast

Observer location: undefined°, undefined

This satellite is decayed
Span
Click to sort rows by Start time (UTC) header in descending order
Start Az.
Max El. time (UTC)
Max El. Az.
Max El.
End time (UTC)
End Az.
|